GW3941 Weather Reports


time (UTC)temp
C
wind
direction
speed
KPH
gust
KPH
rain 1hr
cm
rain 24hr
cm
rain mn
cm
humidity
%
barometer
mb
20260510164506 21 293 1.6 8.0 0.00 0.71 0.00 80 1013.8
20260510164007 20 307 3.2 8.0 0.00 0.71 0.00 79 1013.9
20260510163506 20 214 1.6 9.7 0.00 0.71 0.00 83 1014.0
20260510163002 20 213 3.2 9.7 0.00 0.71 0.00 82 1014.0
20260510162601 20 306 3.2 8.0 0.00 0.71 0.00 82 1014.0
20260510162058 19 311 1.6 8.0 0.00 0.71 0.00 81 1013.9
20260510161557 19 330 1.6 12.9 0.00 0.71 0.00 86 1013.9
20260510161056 19 334 3.2 12.9 0.00 0.71 0.00 86 1014.0
20260510160555 18 132 1.6 8.0 0.00 0.71 0.00 86 1014.0
20260510160100 18 132 3.2 14.5 0.00 0.71 0.00 84 1014.0
20260510155551 19 132 4.8 14.5 0.00 0.71 0.00 83 1014.0
20260510155053 19 206 3.2 11.3 0.00 0.71 0.00 83 1014.0
20260510154552 18 200 1.6 9.7 0.00 0.71 0.00 85 1014.0
20260510154047 18 226 3.2 9.7 0.00 0.71 0.00 85 1014.1
20260510153546 18 239 3.2 8.0 0.00 0.71 0.00 88 1014.0
20260510153045 18 252 1.6 9.7 0.00 0.71 0.00 88 1014.2
20260510152543 18 292 4.8 9.7 0.00 0.71 0.00 89 1014.2
20260510152041 18 300 3.2 8.0 0.00 0.71 0.00 89 1014.1
20260510151540 17 298 0.0 11.3 0.00 0.71 0.00 93 1014.0
20260510151039 17 298 1.6 11.3 0.00 0.71 0.00 93 1014.0
20260510150537 17 295 1.6 8.0 0.00 0.71 0.00 94 1014.1
20260510150042 17 296 1.6 6.4 0.00 0.71 0.00 96 1014.1
20260510145535 16 296 1.6 11.3 0.00 0.71 0.00 95 1014.1
20260510145034 16 295 1.6 11.3 0.00 0.71 0.00 97 1014.1
20260510144535 16 316 1.6 8.0 0.00 0.71 0.00 97 1014.0
20260510144030 15 315 0.0 8.0 0.00 0.71 0.00 96 1014.0
20260510143529 15 298 0.0 6.4 0.00 0.71 0.00 96 1013.9
20260510143027 15 299 1.6 8.0 0.00 0.71 0.00 96 1014.0
20260510142525 15 298 1.6 8.0 0.00 0.71 0.00 96 1014.0
20260510142026 14 300 1.6 8.0 0.00 0.71 0.00 96 1014.0
20260510141529 14 299 1.6 6.4 0.00 0.71 0.00 96 1014.0
20260510141021 13 298 1.6 4.8 0.00 0.71 0.00 96 1013.9
20260510140519 13 294 1.6 4.8 0.00 0.71 0.00 96 1014.0
20260510140018 13 294 1.6 4.8 0.00 0.71 0.00 96 1013.9
20260510135520 13 294 0.0 3.2 0.00 0.71 0.00 96 1013.8
20260510135015 12 294 0.0 8.0 0.00 0.71 0.00 96 1013.8
20260510134514 12 294 3.2 8.0 0.00 0.71 0.00 96 1013.9
20260510134012 12 355 0.0 4.8 0.00 0.71 0.00 96 1013.9
20260510133511 12 360 1.6 4.8 0.00 0.71 0.00 96 1013.7
20260510133013 12 360 0.0 6.4 0.00 0.71 0.00 96 1013.8
20260510132509 12 355 1.6 6.4 0.00 0.71 0.00 96 1013.9
20260510132008 11 350 1.6 6.4 0.00 0.71 0.00 96 1013.8
20260510131509 11 355 1.6 4.8 0.00 0.71 0.00 96 1013.9
20260510131007 11 355 1.6 6.4 0.00 0.71 0.00 96 1014.0
20260510130509 11 348 1.6 6.4 0.00 0.71 0.00 96 1014.0
20260510130009 11 347 0.0 6.4 0.00 0.71 0.00 96 1014.0
20260510125509 11 350 0.0 3.2 0.00 0.71 0.00 96 1014.0
20260510125005 11 350 0.0 4.8 0.00 0.71 0.00 96 1014.0
20260510124507 11 351 1.6 4.8 0.00 0.71 0.00 96 1013.9
20260510124003 11 351 0.0 3.2 0.00 0.71 0.00 96 1013.6
20260510123501 10 351 0.0 1.6 0.00 0.71 0.00 96 1013.6
20260510123001 10 350 0.0 1.6 0.00 0.71 0.00 96 1013.5
20260510122602 10 351 0.0 4.8 0.00 0.71 0.00 96 1013.3
20260510122100 10 351 1.6 4.8 0.00 0.71 0.00 96 1013.3
20260510121559 10 350 0.0 3.2 0.00 0.71 0.00 96 1013.3
20260510121059 10 351 0.0 3.2 0.00 0.71 0.00 96 1013.3
20260510120559 10 351 0.0 3.2 0.00 0.71 0.00 96 1013.2
20260510120057 10 350 0.0 3.2 0.00 0.71 0.00 96 1013.2
20260510115555 10 350 0.0 3.2 0.00 0.71 0.00 96 1013.1
20260510115055 10 350 0.0 1.6 0.00 0.71 0.00 96 1013.1
20260510114554 9 350 0.0 3.2 0.00 0.71 0.00 96 1013.0
20260510114054 9 351 0.0 4.8 0.00 0.71 0.00 96 1013.0
20260510113553 9 351 0.0 6.4 0.00 0.71 0.00 96 1012.7
20260510113053 9 350 1.6 6.4 0.00 0.71 0.00 96 1012.5
20260510112553 9 329 3.2 4.8 0.00 0.71 0.00 96 1012.5
20260510112054 9 327 1.6 4.8 0.00 0.71 0.00 96 1012.6
20260510111553 9 323 1.6 3.2 0.00 0.71 0.00 96 1012.7
20260510111052 9 323 0.0 3.2 0.00 0.71 0.00 96 1012.7
20260510110553 9 323 0.0 1.6 0.00 0.71 0.00 96 1012.7
20260510110052 9 323 0.0 0.0 0.00 0.71 0.00 96 1012.7
20260510105553 9 323 0.0 0.0 0.00 0.71 0.00 96 1012.6
20260510105052 9 323 0.0 3.2 0.00 0.71 0.00 96 1012.6
20260510104551 9 323 0.0 3.2 0.00 0.71 0.00 96 1012.6
20260510104050 9 323 0.0 3.2 0.00 0.71 0.00 96 1012.6
20260510103551 9 323 0.0 1.6 0.00 0.71 0.00 96 1012.6
20260510103058 8 323 0.0 1.6 0.00 0.71 0.00 96 1012.6
20260510102551 8 323 0.0 1.6 0.00 0.71 0.00 96 1012.4
20260510102049 8 323 0.0 4.8 0.00 0.71 0.00 96 1012.4
20260510101553 8 323 1.6 4.8 0.00 0.71 0.00 96 1012.2
20260510101048 8 323 1.6 3.2 0.00 0.71 0.00 96 1012.2
20260510100548 8 323 1.6 3.2 0.00 0.71 0.00 96 1012.1
20260510100048 8 323 0.0 3.2 0.00 0.71 0.00 96 1012.3
20260510095549 8 323 0.0 3.2 0.00 0.71 0.00 96 1012.3
20260510095048 8 323 0.0 3.2 0.00 0.71 0.00 96 1012.2
20260510094549 8 323 1.6 3.2 0.00 0.71 0.00 96 1012.2
20260510094048 8 323 0.0 1.6 0.00 0.71 0.00 96 1012.1
20260510093548 8 323 0.0 3.2 0.00 0.71 0.00 96 1012.3
20260510093048 8 323 1.6 4.8 0.00 0.71 0.00 96 1012.2
20260510092550 8 323 1.6 4.8 0.00 0.71 0.00 96 1012.2
20260510092048 8 323 1.6 4.8 0.00 0.71 0.00 96 1012.3
20260510091546 8 323 0.0 3.2 0.00 0.71 0.00 96 1012.3
20260510091046 9 323 0.0 3.2 0.00 0.71 0.00 96 1012.3
20260510090547 9 323 0.0 3.2 0.00 0.71 0.00 96 1012.4
20260510090050 9 322 0.0 3.2 0.00 0.71 0.00 96 1012.3
20260510085547 9 323 0.0 3.2 0.00 0.71 0.00 96 1012.4
20260510085045 9 323 1.6 4.8 0.00 0.71 0.00 96 1012.4
20260510084545 9 321 0.0 4.8 0.00 0.71 0.00 96 1012.4
20260510084046 9 321 1.6 4.8 0.00 0.71 0.00 96 1012.4
20260510083548 8 321 0.0 4.8 0.00 0.71 0.00 96 1012.4
20260510083045 8 321 1.6 4.8 0.00 0.71 0.00 96 1012.6
20260510082547 8 319 0.0 6.4 0.00 0.71 0.00 96 1012.5
20260510082045 8 315 1.6 6.4 0.00 0.71 0.00 96 1012.5
20260510081554 8 327 3.2 4.8 0.00 0.71 0.00 96 1012.6
20260510081044 8 325 1.6 9.7 0.00 0.71 0.00 96 1012.5
20260510080544 8 323 1.6 9.7 0.00 0.71 0.00 96 1012.4
20260510080049 8 19 3.2 8.0 0.00 0.71 0.00 96 1012.4
20260510075545 8 21 1.6 8.0 0.00 0.71 0.00 96 1012.3
20260510075042 8 15 1.6 9.7 0.00 0.71 0.00 96 1012.1
20260510074542 8 19 4.8 9.7 0.00 0.71 0.00 96 1012.3
20260510074040 8 80 0.0 0.0 0.00 0.71 0.00 96 1011.7
20260510073540 8 80 0.0 0.0 0.00 0.71 0.00 96 1011.6
20260510073040 8 80 0.0 0.0 0.00 0.71 0.00 96 1011.5
20260510072540 8 80 0.0 0.0 0.00 0.71 0.00 96 1011.5
20260510072042 8 80 0.0 0.0 0.00 0.71 0.00 96 1011.5
20260510071537 9 80 0.0 0.0 0.00 0.71 0.00 96 1011.5
20260510071037 9 80 0.0 0.0 0.00 0.71 0.00 96 1011.6
20260510070539 9 80 0.0 0.0 0.00 0.71 0.00 96 1011.7
20260510070043 9 80 0.0 1.6 0.00 0.71 0.00 96 1011.7
20260510065536 9 80 0.0 1.6 0.00 0.71 0.00 96 1011.6
20260510065035 9 80 0.0 0.0 0.00 0.71 0.00 96 1011.7
20260510064536 9 80 0.0 1.6 0.00 0.71 0.00 96 1011.8
20260510064035 9 80 0.0 1.6 0.00 0.71 0.00 96 1011.8
20260510063535 10 80 0.0 3.2 0.00 0.71 0.00 96 1011.8
20260510063035 10 80 0.0 3.2 0.00 0.71 0.00 96 1011.9
20260510062534 10 80 0.0 3.2 0.00 0.71 0.00 96 1012.0
20260510062034 10 80 0.0 3.2 0.00 0.71 0.00 96 1012.0
20260510061533 10 80 0.0 3.2 0.00 0.71 0.00 96 1011.9
20260510061037 10 80 0.0 0.0 0.00 0.71 0.00 96 1011.8
20260510060533 10 80 0.0 0.0 0.00 0.71 0.00 96 1011.8
20260510060034 10 80 0.0 3.2 0.00 0.71 0.00 95 1011.7
20260510055533 10 80 0.0 3.2 0.00 0.71 0.00 95 1011.5
20260510055032 10 80 0.0 6.4 0.00 0.71 0.00 96 1011.5
20260510054541 10 80 1.6 6.4 0.00 0.71 0.00 96 1011.5
20260510054031 10 80 0.0 6.4 0.00 0.71 0.00 96 1011.5
20260510053533 10 80 0.0 0.0 0.00 0.71 0.00 96 1011.6
20260510053031 10 80 0.0 0.0 0.00 0.71 0.00 96 1011.6
20260510052531 10 80 0.0 0.0 0.00 0.71 0.00 96 1011.5
20260510052031 10 80 0.0 0.0 0.00 0.71 0.00 96 1011.6
20260510051534 10 80 0.0 0.0 0.00 0.71 0.00 95 1011.7
20260510051030 10 80 0.0 0.0 0.00 0.71 0.00 96 1011.7
20260510050529 10 80 0.0 0.0 0.00 0.71 0.00 96 1011.7
20260510050029 10 80 0.0 0.0 0.00 0.71 0.00 96 1011.8
20260510045529 10 80 0.0 0.0 0.00 0.71 0.00 95 1011.7
20260510045029 10 80 0.0 0.0 0.00 0.71 0.00 95 1011.8
20260510044534 10 80 0.0 0.0 0.00 0.71 0.00 95 1011.8
20260510044027 10 80 0.0 0.0 0.00 0.71 0.00 95 1011.8
20260510043527 10 80 0.0 0.0 0.00 0.71 0.00 96 1011.8
20260510043027 10 80 0.0 0.0 0.00 0.71 0.00 96 1011.8
20260510042528 10 80 0.0 0.0 0.00 0.71 0.00 96 1011.8
20260510042025 10 80 0.0 0.0 0.00 0.71 0.00 96 1011.8
20260510041525 10 80 0.0 0.0 0.00 0.71 0.00 96 1011.9
20260510041025 10 80 0.0 0.0 0.00 0.71 0.00 96 1011.8
20260510040524 10 80 0.0 0.0 0.00 0.71 0.00 96 1011.9
20260510040024 10 80 0.0 0.0 0.00 0.71 0.00 96 1011.9
20260510035522 10 80 0.0 0.0 0.00 0.71 0.71 96 1011.8
20260510035023 10 80 0.0 3.2 0.00 0.71 0.71 95 1011.8
20260510034523 10 80 0.0 4.8 0.00 0.71 0.71 95 1011.8
20260510034022 10 80 1.6 4.8 0.00 0.71 0.71 96 1011.7
20260510033522 10 80 0.0 4.8 0.00 0.71 0.71 96 1011.6
20260510033023 10 80 0.0 3.2 0.00 0.71 0.71 96 1011.5
20260510032522 10 80 0.0 3.2 0.00 0.71 0.71 96 1011.5
20260510032022 10 80 0.0 4.8 0.00 0.71 0.71 96 1011.5
20260510031528 10 80 0.0 4.8 0.00 0.71 0.71 96 1011.6
20260510031022 10 80 1.6 4.8 0.00 0.71 0.71 96 1011.5
20260510030522 10 80 1.6 3.2 0.00 0.71 0.71 96 1011.6
20260510030023 10 80 0.0 3.2 0.00 0.71 0.71 96 1011.5
20260510025521 10 80 1.6 3.2 0.00 0.71 0.71 96 1011.5
20260510025021 10 80 1.6 3.2 0.00 0.71 0.71 96 1011.4
20260510024520 10 80 1.6 4.8 0.00 0.71 0.71 96 1011.4
20260510024022 10 80 1.6 4.8 0.00 0.71 0.71 96 1011.4
20260510023521 10 79 1.6 6.4 0.00 0.71 0.71 96 1011.4
20260510023020 10 80 1.6 6.4 0.00 0.71 0.71 96 1011.4
20260510022520 10 78 1.6 6.4 0.00 0.71 0.71 95 1011.4
20260510022021 10 78 0.0 3.2 0.00 0.71 0.71 96 1011.5
20260510021528 10 78 0.0 3.2 0.00 0.71 0.71 96 1011.5
20260510021019 10 78 0.0 3.2 0.00 0.71 0.71 96 1011.4
20260510020519 10 78 0.0 3.2 0.00 0.71 0.71 96 1011.4
20260510020020 10 78 0.0 3.2 0.00 0.71 0.71 96 1011.5
20260510015521 10 78 0.0 3.2 0.00 0.71 0.71 96 1011.5
20260510015019 10 78 0.0 3.2 0.00 0.71 0.71 96 1011.5
20260510014519 10 78 0.0 3.2 0.00 0.71 0.71 96 1011.6
20260510014019 10 78 1.6 3.2 0.00 0.71 0.71 96 1011.5
20260510013519 10 78 0.0 4.8 0.00 0.71 0.71 96 1011.4
20260510013019 10 78 0.0 4.8 0.00 0.71 0.71 96 1011.5
20260510012519 10 78 0.0 4.8 0.00 0.71 0.71 96 1011.5
20260510012019 10 78 1.6 4.8 0.00 0.71 0.71 96 1011.3
20260510011518 10 78 1.6 4.8 0.00 0.71 0.71 96 1011.4
20260510011019 10 78 0.0 4.8 0.00 0.71 0.71 96 1011.4
20260510010518 10 78 0.0 3.2 0.00 0.71 0.71 96 1011.5
20260510010020 10 78 0.0 3.2 0.00 0.71 0.71 96 1011.4
20260510005518 10 78 0.0 3.2 0.00 0.71 0.71 96 1011.2
20260510005017 10 78 0.0 3.2 0.00 0.71 0.71 96 1011.2
20260510004517 10 78 0.0 3.2 0.00 0.71 0.71 96 1011.1
20260510004017 10 78 0.0 3.2 0.00 0.71 0.71 96 1011.0
20260510003517 10 78 0.0 3.2 0.00 0.71 0.71 96 1010.9
20260510003017 10 78 0.0 4.8 0.00 0.71 0.71 96 1010.9
20260510002518 10 78 0.0 4.8 0.00 0.71 0.71 96 1010.8
20260510002017 10 78 0.0 3.2 0.00 0.71 0.71 96 1010.7
20260510001516 10 78 0.0 3.2 0.00 0.71 0.71 96 1010.7
20260510001016 10 78 0.0 3.2 0.00 0.71 0.71 96 1010.7
20260510000516 10 78 1.6 6.4 0.00 0.71 0.71 96 1010.7
20260510000020 10 78 1.6 6.4 0.00 0.71 0.71 96 1010.7
20260509235516 11 78 1.6 4.8 0.00 0.71 0.71 96 1010.8
20260509235016 11 78 0.0 6.4 0.00 0.71 0.71 96 1010.8
20260509234516 11 78 1.6 6.4 0.00 0.71 0.71 96 1010.9
20260509234016 11 78 1.6 6.4 0.00 0.71 0.71 96 1010.7
20260509233517 11 78 1.6 6.4 0.00 0.71 0.71 96 1010.7
20260509233017 11 77 1.6 4.8 0.00 0.71 0.71 96 1010.6
20260509232515 11 77 0.0 6.4 0.00 0.71 0.71 96 1010.7
20260509232015 11 76 0.0 8.0 0.00 0.71 0.71 97 1010.7
20260509231514 11 75 0.0 4.8 0.00 0.71 0.71 96 1010.6
20260509231014 11 75 1.6 4.8 0.00 0.71 0.71 96 1010.4
20260509230514 11 75 0.0 6.4 0.00 0.71 0.71 96 1010.4
20260509230015 11 75 0.0 8.0 0.00 0.71 0.71 97 1010.4
20260509225514 11 75 3.2 8.0 0.00 0.71 0.71 96 1010.5
20260509225013 11 76 1.6 8.0 0.00 0.71 0.71 97 1010.5
20260509224513 11 76 1.6 6.4 0.00 0.71 0.71 97 1010.6
20260509224013 11 76 0.0 6.4 0.00 0.71 0.71 97 1010.6
20260509223513 11 76 0.0 8.0 0.00 0.71 0.71 97 1010.6
20260509223018 11 74 0.0 8.0 0.00 0.71 0.71 97 1010.6
20260509222512 11 75 4.8 8.0 0.00 0.71 0.71 97 1010.6
20260509222016 12 70 1.6 8.0 0.00 0.71 0.71 97 1010.6
20260509221513 12 333 1.6 4.8 0.00 0.71 0.71 97 1010.6
20260509221012 12 334 0.0 3.2 0.00 0.71 0.71 97 1010.5
20260509220512 12 334 0.0 3.2 0.00 0.71 0.71 97 1010.6
20260509220013 12 334 0.0 3.2 0.00 0.71 0.71 97 1010.6
20260509215511 12 334 0.0 1.6 0.03 0.71 0.71 98 1010.5
20260509215013 12 333 0.0 3.2 0.03 0.71 0.71 98 1010.7
20260509214511 12 333 0.0 4.8 0.03 0.71 0.71 97 1010.7
20260509214010 12 333 0.0 4.8 0.03 0.71 0.71 97 1010.8
20260509213510 12 333 1.6 4.8 0.03 0.71 0.71 97 1010.7
20260509213011 12 340 0.0 3.2 0.05 0.71 0.71 96 1010.7
20260509212510 12 339 0.0 3.2 0.05 0.71 0.71 96 1010.7
20260509212010 12 337 0.0 3.2 0.05 0.71 0.71 95 1010.7
20260509211515 12 338 0.0 4.8 0.08 0.71 0.71 95 1010.7
20260509211012 12 338 0.0 4.8 0.08 0.71 0.71 96 1010.8
20260509210511 11 341 0.0 4.8 0.08 0.71 0.71 96 1010.7
20260509210011 11 341 0.0 4.8 0.13 0.71 0.71 96 1010.6
20260509205508 11 341 0.0 3.2 0.10 0.71 0.71 96 1010.6
20260509205010 11 341 0.0 3.2 0.10 0.71 0.71 96 1010.6
20260509204508 11 341 0.0 1.6 0.13 0.71 0.71 96 1010.8
20260509204012 11 341 0.0 4.8 0.15 0.71 0.71 96 1010.7
20260509203507 10 340 0.0 4.8 0.20 0.71 0.71 96 1010.7
20260509203011 10 333 0.0 4.8 0.20 0.69 0.69 96 1010.8
20260509202511 11 333 0.0 3.2 0.23 0.69 0.69 96 1010.8
20260509202007 11 333 0.0 3.2 0.23 0.69 0.69 96 1010.8
20260509201506 11 333 0.0 3.2 0.23 0.66 0.66 96 1010.7
20260509201006 11 333 0.0 6.4 0.23 0.66 0.66 96 1010.7
20260509200505 11 333 1.6 6.4 0.23 0.64 0.64 96 1010.8
20260509200007 11 334 0.0 4.8 0.20 0.61 0.61 96 1011.0
20260509195505 11 334 1.6 12.9 0.23 0.61 0.61 96 1011.0
20260509195003 11 334 3.2 12.9 0.25 0.61 0.61 96 1011.2
20260509194506 11 236 0.0 4.8 0.20 0.56 0.56 96 1011.3
20260509194005 11 236 0.0 8.0 0.23 0.56 0.56 96 1011.2
20260509193503 11 238 3.2 9.7 0.20 0.51 0.51 96 1011.5
20260509193006 11 320 1.6 8.0 0.23 0.48 0.48 96 1011.7
20260509192502 11 321 1.6 8.0 0.23 0.46 0.46 96 1011.7
20260509192002 11 326 1.6 8.0 0.25 0.46 0.46 96 1011.9
20260509191502 11 321 1.6 6.4 0.23 0.43 0.43 96 1011.9
20260509191001 11 329 0.0 6.4 0.25 0.43 0.43 96 1011.9
20260509190501 11 334 1.6 6.4 0.25 0.41 0.41 96 1011.9
20260509190001 11 355 0.0 4.8 0.25 0.41 0.41 96 1011.9
20260509185502 11 355 0.0 9.7 0.25 0.38 0.38 96 1012.0
20260509185002 11 360 1.6 8.0 0.23 0.36 0.36 97 1011.9
20260509184501 11 355 1.6 14.5 0.25 0.36 0.36 97 1011.9
20260509184100 11 355 3.2 12.9 0.23 0.33 0.33 97 1011.9
20260509183600 11 286 0.0 4.8 0.23 0.30 0.30 97 1012.0
20260509183100 11 284 0.0 6.4 0.20 0.25 0.25 97 1012.0
20260509182559 11 285 0.0 6.4 0.20 0.25 0.25 97 1011.9
20260509182059 11 288 0.0 4.8 0.18 0.20 0.20 97 1011.9
20260509181559 11 291 0.0 8.0 0.20 0.20 0.20 97 1012.0
20260509181059 11 291 1.6 8.0 0.18 0.18 0.18 97 1011.8
20260509180559 11 199 1.6 4.8 0.15 0.15 0.15 97 1011.6
20260509180058 11 216 0.0 8.0 0.15 0.15 0.15 97 1011.7
20260509175558 11 210 1.6 8.0 0.13 0.13 0.13 97 1011.6
20260509175058 11 46 1.6 6.4 0.13 0.13 0.13 97 1011.6
20260509174557 12 277 1.6 4.8 0.10 0.10 0.10 97 1011.8
20260509174056 12 277 1.6 3.2 0.10 0.10 0.10 97 1012.0
20260509173555 12 277 0.0 3.2 0.08 0.08 0.08 96 1012.3
20260509173118 12 276 0.0 3.2 0.05 0.05 0.05 96 1012.2
20260509172556 12 276 0.0 4.8 0.05 0.05 0.05 94 1012.2
20260509172055 12 277 3.2 8.0 0.03 0.03 0.03 93 1012.3
20260509171554 12 282 1.6 8.0 0.00 0.00 0.00 94 1012.4
20260509171053 13 277 0.0 3.2 0.00 0.00 0.00 95 1012.4
20260509170558 13 277 0.0 3.2 0.00 0.00 0.00 94 1012.3
20260509165553 13 275 1.6 9.7 0.00 0.00 0.00 91 1012.1
20260509165053 13 272 3.2 9.7 0.00 0.00 0.00 90 1012.1